Weather History for KMZH - September, 2012

Change the Weather History Date:

Saturday, September 1, 2012

  Actual Average Record
Temperature  
Mean Temperature 66 °F -  
Max Temperature 82 °F 74 °F 92 °F (1961)
Min Temperature 50 °F 49 °F 28 °F (1974)
Cooling Degree Days 1    
Growing Degree Days 16 (Base 50)    
Moisture  
Dew Point 44 °F    
Average Humidity 54    
Maximum Humidity 88    
Minimum Humidity 16    
Precipitation  
Precipitation 0.00 in - - ()
Sea Level Pressure  
Sea Level Pressure 30.13 in    
Wind  
Wind Speed 2 mph (East)    
Max Wind Speed 8 mph    
Max Gust Speed -    
Visibility 10 miles    
Events      
Averages and records for this station are not official NWS values.
T = Trace of Precipitation, MM = Missing Value Source: NWS Daily Summary

Daily Weather History Graph

Daily Weather History Graph

Search for Another Location

Airport or City:

Trip Planner

Search our weather history database for the weather conditions in past years. The results will help you decide how hot, cold, wet, or windy it might be!

Date:

Astronomy

Sep. 01, 2012 Rise Set
Actual Time 6:32 AM CDT 7:49 PM CDT
Civil Twilight 6:00 AM CDT 8:20 PM CDT
Nautical Twilight 5:23 AM CDT 8:57 PM CDT
Astronomical Twilight 4:43 AM CDT 9:37 PM CDT
Moon 7:56 PM CDT (9/1) 7:48 AM CDT (9/1)
Length of Visible Light 14h 19m
Length of Day
13h 17m
Full, 99% of the Moon is Illuminated
Sep 1
Full
Sep 8
Last Quarter
Sep 15
New
Sep 22
First Quarter
Sep 29
Full

Hourly Weather History & Observations

Time (CDT) Temp. Dew Point Humidity Pressure Visibility Wind Dir Wind Speed Gust Speed Precip Events Conditions
12:10 AM 53.6 °F 48.2 °F 82% 30.15 in 2.5 mi Calm Calm - N/A   Haze
12:15 AM 51.8 °F 46.4 °F 82% 30.15 in 7.0 mi Calm Calm - N/A   Clear
12:30 AM 53.6 °F 48.2 °F 82% 30.15 in 10.0 mi Calm Calm - N/A   Clear
12:35 AM 53.6 °F 48.2 °F 82% 30.15 in 10.0 mi Calm Calm - N/A   Scattered Clouds
12:55 AM 51.8 °F 46.4 °F 82% 30.15 in 10.0 mi Calm Calm - N/A   Scattered Clouds
1:10 AM 51.8 °F 46.4 °F 82% 30.15 in 10.0 mi Calm Calm - N/A   Scattered Clouds
1:15 AM 53.6 °F 48.2 °F 82% 30.15 in 10.0 mi Calm Calm - N/A   Mostly Cloudy
1:30 AM 53.6 °F 50.0 °F 88% 30.15 in 10.0 mi Calm Calm - N/A   Scattered Clouds
1:34 AM 53.6 °F 48.2 °F 82% 30.15 in 10.0 mi Calm Calm - N/A   Scattered Clouds
1:51 AM 51.8 °F 46.4 °F 82% 30.16 in 10.0 mi Calm Calm - N/A   Clear
1:55 AM 51.8 °F 46.4 °F 82% 30.16 in 10.0 mi Calm Calm - N/A   Clear
2:10 AM 51.8 °F 46.4 °F 82% 30.16 in 7.0 mi Calm Calm - N/A   Clear
2:14 AM 51.8 °F 46.4 °F 82% 30.16 in 7.0 mi Calm Calm - N/A   Scattered Clouds
2:30 AM 51.8 °F 46.4 °F 82% 30.15 in 10.0 mi Calm Calm - N/A   Scattered Clouds
2:35 AM 53.6 °F 48.2 °F 82% 30.16 in 10.0 mi Calm Calm - N/A   Scattered Clouds
2:51 AM 51.8 °F 46.4 °F 82% 30.16 in 10.0 mi Calm Calm - N/A   Scattered Clouds
2:55 AM 51.8 °F 46.4 °F 82% 30.16 in 10.0 mi Calm Calm - N/A   Scattered Clouds
3:10 AM 51.8 °F 46.4 °F 82% 30.16 in 10.0 mi Calm Calm - N/A   Clear
3:14 AM 51.8 °F 46.4 °F 82% 30.16 in 10.0 mi Calm Calm - N/A   Clear
3:31 AM 51.8 °F 44.6 °F 76% 30.16 in 10.0 mi Calm Calm - N/A   Clear
3:34 AM 51.8 °F 44.6 °F 76% 30.16 in 10.0 mi Calm Calm - N/A   Clear
3:50 AM 51.8 °F 44.6 °F 76% 30.16 in 10.0 mi Calm Calm - N/A   Clear
3:54 AM 51.8 °F 44.6 °F 76% 30.16 in 10.0 mi Calm Calm - N/A   Clear
4:10 AM 51.8 °F 44.6 °F 76% 30.16 in 10.0 mi Calm Calm - N/A   Clear
4:15 AM 51.8 °F 44.6 °F 76% 30.17 in 10.0 mi Calm Calm - N/A   Clear
4:30 AM 50.0 °F 44.6 °F 82% 30.18 in 10.0 mi Calm Calm - N/A   Clear
4:34 AM 51.8 °F 44.6 °F 76% 30.18 in 10.0 mi Calm Calm - N/A   Clear
4:51 AM 51.8 °F 44.6 °F 76% 30.18 in 10.0 mi Calm Calm - N/A   Clear
4:54 AM 51.8 °F 44.6 °F 76% 30.18 in 10.0 mi Calm Calm - N/A   Clear
5:11 AM 50.0 °F 44.6 °F 82% 30.17 in 10.0 mi Calm Calm - N/A   Clear
5:15 AM 50.0 °F 44.6 °F 82% 30.17 in 10.0 mi Calm Calm - N/A   Clear
5:30 AM 50.0 °F 44.6 °F 82% 30.18 in 10.0 mi Calm Calm - N/A   Clear
5:35 AM 50.0 °F 44.6 °F 82% 30.17 in 10.0 mi Calm Calm - N/A   Clear
5:50 AM 50.0 °F 44.6 °F 82% 30.17 in 10.0 mi Calm Calm - N/A   Clear
5:55 AM 50.0 °F 44.6 °F 82% 30.17 in 10.0 mi Calm Calm - N/A   Clear
6:10 AM 50.0 °F 42.8 °F 76% 30.17 in 10.0 mi Calm Calm - N/A   Clear
6:15 AM 50.0 °F 42.8 °F 76% 30.18 in 10.0 mi Calm Calm - N/A   Clear
6:30 AM 50.0 °F 44.6 °F 82% 30.18 in 10.0 mi Calm Calm - N/A   Clear
6:34 AM 50.0 °F 44.6 °F 82% 30.18 in 10.0 mi Calm Calm - N/A   Clear
6:51 AM 50.0 °F 44.6 °F 82% 30.18 in 10.0 mi NE 3.5 mph - N/A   Clear
6:54 AM 50.0 °F 44.6 °F 82% 30.18 in 10.0 mi NNE 4.6 mph - N/A   Clear
7:11 AM 50.0 °F 44.6 °F 82% 30.19 in 10.0 mi NNE 4.6 mph - N/A   Clear
7:14 AM 50.0 °F 44.6 °F 82% 30.19 in 10.0 mi NNE 4.6 mph - N/A   Clear
7:31 AM 51.8 °F 46.4 °F 82% 30.19 in 10.0 mi NE 4.6 mph - N/A   Clear
7:34 AM 51.8 °F 46.4 °F 82% 30.19 in 10.0 mi NE 3.5 mph - N/A   Clear
7:51 AM 53.6 °F 46.4 °F 77% 30.18 in 10.0 mi NE 3.5 mph - N/A   Clear
7:54 AM 53.6 °F 46.4 °F 77% 30.18 in 10.0 mi NE 3.5 mph - N/A   Clear
8:12 AM 55.4 °F 46.4 °F 72% 30.19 in 10.0 mi NE 3.5 mph - N/A   Clear
8:14 AM 55.4 °F 46.4 °F 72% 30.19 in 10.0 mi NNE 3.5 mph - N/A   Clear
8:30 AM 59.0 °F 48.2 °F 67% 30.19 in 10.0 mi NNE 3.5 mph - N/A   Clear
8:35 AM 59.0 °F 48.2 °F 67% 30.19 in 10.0 mi NNE 3.5 mph - N/A   Clear
8:50 AM 60.8 °F 48.2 °F 63% 30.19 in 10.0 mi Calm Calm - N/A   Clear
8:55 AM 60.8 °F 48.2 °F 63% 30.19 in 10.0 mi Calm Calm - N/A   Clear
9:10 AM 62.6 °F 46.4 °F 55% 30.19 in 10.0 mi NE 4.6 mph - N/A   Clear
9:14 AM 64.4 °F 46.4 °F 52% 30.19 in 10.0 mi NE 3.5 mph - N/A   Clear
9:31 AM 66.2 °F 46.4 °F 49% 30.19 in 10.0 mi East 3.5 mph - N/A   Clear
9:35 AM 68.0 °F 44.6 °F 43% 30.19 in 10.0 mi Calm Calm - N/A   Clear
9:50 AM 68.0 °F 42.8 °F 40% 30.19 in 10.0 mi East 3.5 mph - N/A   Clear
9:55 AM 68.0 °F 42.8 °F 40% 30.19 in 10.0 mi Calm Calm - N/A   Clear
10:10 AM 69.8 °F 42.8 °F 38% 30.18 in 10.0 mi ESE 3.5 mph - N/A   Clear
10:14 AM 69.8 °F 42.8 °F 38% 30.18 in 10.0 mi SE 4.6 mph - N/A   Clear
10:31 AM 69.8 °F 42.8 °F 38% 30.18 in 10.0 mi ESE 4.6 mph - N/A   Clear
10:35 AM 69.8 °F 42.8 °F 38% 30.18 in 10.0 mi ESE 3.5 mph - N/A   Clear
10:50 AM 71.6 °F 42.8 °F 35% 30.18 in 10.0 mi SE 4.6 mph - N/A   Clear
10:54 AM 71.6 °F 42.8 °F 35% 30.18 in 10.0 mi Calm Calm - N/A   Clear
11:11 AM 73.4 °F 42.8 °F 33% 30.18 in 10.0 mi Calm Calm - N/A   Clear
11:14 AM 73.4 °F 41.0 °F 31% 30.18 in 10.0 mi Calm Calm - N/A   Clear
11:31 AM 75.2 °F 39.2 °F 27% 30.17 in 10.0 mi ESE 5.8 mph - N/A   Clear
11:35 AM 75.2 °F 39.2 °F 27% 30.17 in 10.0 mi ESE 3.5 mph - N/A   Clear
11:51 AM 77.0 °F 35.6 °F 22% 30.17 in 10.0 mi ESE 4.6 mph - N/A   Clear
12:11 PM 77.0 °F 35.6 °F 22% 30.17 in 10.0 mi ESE 4.6 mph - N/A   Clear
12:15 PM 77.0 °F 35.6 °F 22% 30.17 in 10.0 mi ESE 8.1 mph - N/A   Clear
12:31 PM 78.8 °F 35.6 °F 21% 30.16 in 10.0 mi ESE 3.5 mph - N/A   Clear
12:35 PM 78.8 °F 35.6 °F 21% 30.16 in 10.0 mi SE 4.6 mph - N/A   Clear
12:50 PM 78.8 °F 35.6 °F 21% 30.15 in 10.0 mi ESE 5.8 mph - N/A   Clear
12:54 PM 78.8 °F 35.6 °F 21% 30.15 in 10.0 mi East 6.9 mph - N/A   Clear
1:11 PM 80.6 °F 35.6 °F 20% 30.14 in 10.0 mi SE 4.6 mph - N/A   Clear
1:14 PM 80.6 °F 37.4 °F 21% 30.14 in 10.0 mi ESE 3.5 mph - N/A   Clear
1:31 PM 80.6 °F 35.6 °F 20% 30.13 in 10.0 mi ESE 8.1 mph - N/A   Clear
1:34 PM 80.6 °F 35.6 °F 20% 30.13 in 10.0 mi ESE 5.8 mph - N/A   Clear
1:50 PM 80.6 °F 37.4 °F 21% 30.13 in 10.0 mi ESE 6.9 mph - N/A   Clear
1:55 PM 80.6 °F 37.4 °F 21% 30.13 in 10.0 mi East 4.6 mph - N/A   Clear
2:10 PM 80.6 °F 35.6 °F 20% 30.12 in 10.0 mi ENE 5.8 mph - N/A   Clear
2:15 PM 80.6 °F 33.8 °F 18% 30.12 in 10.0 mi East 5.8 mph - N/A   Clear
2:31 PM 82.4 °F 33.8 °F 17% 30.12 in 10.0 mi East 6.9 mph - N/A   Clear
2:34 PM 82.4 °F 32.0 °F 16% 30.11 in 10.0 mi ESE 6.9 mph - N/A   Clear
2:50 PM 80.6 °F 33.8 °F 18% 30.11 in 10.0 mi ESE 4.6 mph - N/A   Clear
2:55 PM 80.6 °F 32.0 °F 17% 30.11 in 10.0 mi ESE 4.6 mph - N/A   Clear
3:10 PM 82.4 °F 35.6 °F 19% 30.10 in 10.0 mi ESE 5.8 mph - N/A   Clear
3:15 PM 82.4 °F 33.8 °F 17% 30.10 in 10.0 mi East 8.1 mph - N/A   Clear
3:30 PM 82.4 °F 32.0 °F 16% 30.09 in 10.0 mi East 6.9 mph - N/A   Clear
3:35 PM 82.4 °F 32.0 °F 16% 30.09 in 10.0 mi East 5.8 mph - N/A   Clear
3:50 PM 82.4 °F 33.8 °F 17% 30.08 in 10.0 mi East 8.1 mph - N/A   Clear
4:10 PM 82.4 °F 33.8 °F 17% 30.08 in 10.0 mi East 6.9 mph - N/A   Clear
4:15 PM 82.4 °F 33.8 °F 17% 30.08 in 10.0 mi ESE 8.1 mph - N/A   Clear
4:31 PM 82.4 °F 33.8 °F 17% 30.07 in 10.0 mi East 4.6 mph - N/A   Clear
4:35 PM 82.4 °F 35.6 °F 19% 30.07 in 10.0 mi ESE 5.8 mph - N/A   Clear
4:51 PM 82.4 °F 33.8 °F 17% 30.07 in 10.0 mi SE 5.8 mph - N/A   Clear
4:55 PM 80.6 °F 33.8 °F 18% 30.07 in 10.0 mi East 3.5 mph - N/A   Clear
5:11 PM 80.6 °F 41.0 °F 24% 30.06 in 10.0 mi ENE 6.9 mph - N/A   Clear
5:14 PM 78.8 °F 42.8 °F 28% 30.06 in 10.0 mi ENE 6.9 mph - N/A   Clear
5:31 PM 78.8 °F 42.8 °F 28% 30.06 in 10.0 mi NE 5.8 mph - N/A   Clear
5:34 PM 78.8 °F 42.8 °F 28% 30.06 in 10.0 mi ENE 6.9 mph - N/A   Clear
5:51 PM 77.0 °F 42.8 °F 29% 30.06 in 10.0 mi ENE 5.8 mph - N/A   Clear
5:54 PM 77.0 °F 42.8 °F 29% 30.06 in 10.0 mi ENE 5.8 mph - N/A   Clear
6:11 PM 77.0 °F 42.8 °F 29% 30.06 in 10.0 mi Calm Calm - N/A   Clear
6:15 PM 75.2 °F 42.8 °F 31% 30.06 in 10.0 mi NE 4.6 mph - N/A   Clear
6:31 PM 73.4 °F 42.8 °F 33% 30.06 in 10.0 mi ENE 5.8 mph - N/A   Clear
6:34 PM 73.4 °F 42.8 °F 33% 30.06 in 10.0 mi NE 6.9 mph - N/A   Clear
6:51 PM 71.6 °F 42.8 °F 35% 30.06 in 10.0 mi NE 4.6 mph - N/A   Clear
6:54 PM 71.6 °F 42.8 °F 35% 30.06 in 10.0 mi NE 4.6 mph - N/A   Clear
7:10 PM 71.6 °F 42.8 °F 35% 30.06 in 10.0 mi ENE 4.6 mph - N/A   Clear
7:14 PM 69.8 °F 42.8 °F 38% 30.06 in 10.0 mi ENE 3.5 mph - N/A   Clear
7:30 PM 69.8 °F 44.6 °F 40% 30.06 in 10.0 mi Calm Calm - N/A   Clear
7:35 PM 68.0 °F 44.6 °F 43% 30.06 in 10.0 mi NE 3.5 mph - N/A   Clear
7:50 PM 68.0 °F 46.4 °F 46% 30.06 in 10.0 mi ENE 5.8 mph - N/A   Clear
7:55 PM 68.0 °F 46.4 °F 46% 30.06 in 10.0 mi ENE 5.8 mph - N/A   Clear
8:10 PM 66.2 °F 46.4 °F 49% 30.06 in 10.0 mi ENE 4.6 mph - N/A   Clear
8:15 PM 66.2 °F 46.4 °F 49% 30.06 in 10.0 mi NE 3.5 mph - N/A   Clear
8:31 PM 64.4 °F 48.2 °F 56% 30.06 in 10.0 mi ENE 3.5 mph - N/A   Clear
8:34 PM 64.4 °F 50.0 °F 59% 30.06 in 10.0 mi ENE 4.6 mph - N/A   Clear
8:51 PM 64.4 °F 50.0 °F 59% 30.06 in 10.0 mi Calm Calm - N/A   Clear
9:11 PM 62.6 °F 51.8 °F 68% 30.06 in 10.0 mi ENE 3.5 mph - N/A   Clear
9:15 PM 62.6 °F 51.8 °F 68% 30.06 in 10.0 mi Calm Calm - N/A   Clear
9:30 PM 62.6 °F 51.8 °F 68% 30.06 in 10.0 mi Calm Calm - N/A   Clear
9:35 PM 62.6 °F 51.8 °F 68% 30.05 in 10.0 mi NE 4.6 mph - N/A   Clear
9:50 PM 60.8 °F 51.8 °F 72% 30.05 in 10.0 mi Calm Calm - N/A   Clear
9:54 PM 60.8 °F 51.8 °F 72% 30.05 in 10.0 mi Calm Calm - N/A   Clear
10:11 PM 60.8 °F 53.6 °F 77% 30.05 in 10.0 mi Calm Calm - N/A   Clear
10:14 PM 60.8 °F 53.6 °F 77% 30.05 in 10.0 mi Calm Calm - N/A   Clear
10:31 PM 60.8 °F 53.6 °F 77% 30.05 in 10.0 mi Calm Calm - N/A   Clear
10:35 PM 60.8 °F 53.6 °F 77% 30.05 in 10.0 mi Calm Calm - N/A   Clear
10:50 PM 60.8 °F 53.6 °F 77% 30.04 in 10.0 mi Calm Calm - N/A   Clear
10:54 PM 60.8 °F 53.6 °F 77% 30.04 in 10.0 mi Calm Calm - N/A   Clear
11:10 PM 60.8 °F 53.6 °F 77% 30.04 in 10.0 mi Calm Calm - N/A   Clear
11:14 PM 60.8 °F 53.6 °F 77% 30.04 in 10.0 mi Calm Calm - N/A   Clear
11:30 PM 60.8 °F 53.6 °F 77% 30.04 in 10.0 mi Calm Calm - N/A   Clear
11:35 PM 60.8 °F 51.8 °F 72% 30.04 in 10.0 mi Calm Calm - N/A   Clear
11:50 PM 59.0 °F 51.8 °F 77% 30.04 in 10.0 mi Calm Calm - N/A   Clear
11:55 PM 59.0 °F 51.8 °F 77% 30.04 in 10.0 mi Calm Calm - N/A   Clear